This demonstration page uses our WeatherBlox Daily Observations layout. Learn more.

Left ArrowRight Arrow

40.92945, -100.16068

Hourly Observations for April 8, 2016

Temp ( °F °C ) Dew Point ( °F °C ) Humidity (%) Winds ( mph kmh ) Pressure ( in mb ) Visibility ( mi km ) Precip ( " mm )
12:15 am 00:15 Clear 36 2.2 19 -7 51 51 W 7 11 30.24 1024 10 16 N/A
12:35 am 00:35 Clear 34 1.2 19 -7.1 54 54 W 9 15 30.27 1025 10 16 N/A
12:55 am 00:55 Clear 32 0.1 20 -6.9 60 60 W 8 13 30.27 1025 10 16 N/A
1:35 am 01:35 Clear 32 -0.2 18 -8 56 56 NNW 8 13 30.27 1025 10 16 N/A
1:55 am 01:55 Clear 31 -0.8 18 -7.6 60 60 NW 8 13 30.27 1025 10 16 N/A
2:15 am 02:15 Clear 31 -0.7 18 -7.6 60 60 NW 9 15 30.27 1025 10 16 N/A
2:35 am 02:35 Clear 31 -0.5 19 -7.5 60 60 WNW 8 13 30.27 1025 10 16 N/A
2:55 am 02:55 Clear 31 -0.4 19 -7.2 60 60 WNW 10 17 30.27 1025 10 16 N/A
3:15 am 03:15 Clear 32 -0.2 19 -7.1 60 60 WNW 9 15 30.27 1025 10 16 N/A
3:35 am 03:35 Clear 31 -0.4 19 -7.1 61 61 NW 6 9 30.27 1025 10 16 N/A
3:55 am 03:55 Clear 29 -1.4 19 -7 66 66 NW 9 15 30.30 1026 10 16 N/A
4:15 am 04:15 Clear 29 -1.8 18 -7.6 65 65 NW 8 13 30.30 1026 10 16 N/A
4:35 am 04:35 Clear 29 -1.6 20 -6.9 68 68 NW 8 13 30.30 1026 10 16 N/A
4:55 am 04:55 Clear 29 -1.5 20 -6.9 67 67 WNW 8 13 30.30 1026 10 16 N/A
5:15 am 05:15 Clear 28 -2 19 -7.3 67 67 NNW 8 13 30.30 1026 10 16 N/A
5:35 am 05:35 Clear 28 -2.3 19 -7 70 70 WNW 7 11 30.30 1026 10 16 N/A
5:55 am 05:55 Clear 26 -3.1 18 -7.7 71 71 W 6 9 30.30 1026 10 16 N/A
6:15 am 06:15 Clear 26 -3.2 19 -7.5 72 72 W 8 13 30.30 1026 10 16 N/A
6:35 am 06:35 Clear 26 -3.5 19 -7.5 74 74 WSW 7 11 30.30 1026 10 16 N/A
6:55 am 06:55 Mostly Cloudy 29 -1.7 21 -6.1 72 72 W 9 15 30.30 1026 10 16 N/A
7:15 am 07:15 Cloudy 32 undefined 22 -5.3 68 68 WNW 6 9 30.27 1025 10 16 N/A
7:35 am 07:35 Cloudy 33 0.8 23 -5.1 65 65 NW 6 9 30.27 1025 10 16 N/A
7:55 am 07:55 Cloudy 34 1.1 24 -4.6 66 66 NNW 6 9 30.27 1025 10 16 N/A
8:15 am 08:15 Cloudy 35 1.7 24 -4.7 63 63 NNW 6 9 30.27 1025 10 16 N/A
8:35 am 08:35 Cloudy 37 2.9 24 -4.7 58 58 WNW 7 11 30.24 1024 10 16 N/A
8:55 am 08:55 Cloudy 38 3.5 24 -4.2 57 57 WNW 8 13 30.27 1025 10 16 N/A
9:15 am 09:15 Partly Cloudy 41 5 25 -4 53 53 WNW 7 11 30.27 1025 10 16 N/A
9:35 am 09:35 Sunny 44 6.7 25 -4 47 47 WNW 9 15 30.24 1024 10 16 N/A
9:55 am 09:55 Sunny 46 7.8 25 -3.8 44 44 NW 8 13 30.24 1024 10 16 N/A
10:15 am 10:15 Sunny 48 9.1 24 -4.2 39 39 NW 8 13 30.21 1023 10 16 N/A
10:35 am 10:35 Sunny 51 10.5 24 -4.2 36 36 WNW 8 13 30.21 1023 10 16 N/A
10:55 am 10:55 Sunny 53 11.5 24 -4.5 33 33 NW 8 13 30.21 1023 10 16 N/A
11:15 am 11:15 Sunny 54 12.2 24 -4.4 31 31 NNW 9 15 30.18 1022 10 16 N/A
11:35 am 11:35 Sunny 56 13.4 24 -4.3 29 29 NW 8 13 30.18 1022 10 16 N/A
11:55 am 11:55 Sunny 57 14.1 23 -5 26 26 WNW 7 11 30.18 1022 10 16 N/A
12:15 pm 12:15 Sunny 59 14.8 24 -4.2 27 27 W 12 19 30.12 1020 10 16 N/A
12:35 pm 12:35 Sunny 60 15.6 25 -3.9 26 26 NNW 14 22 30.12 1020 10 16 N/A
12:55 pm 12:55 Sunny 60 15.7 24 -4.5 25 25 NW 6 9 30.12 1020 10 16 N/A
1:15 pm 13:15 Sunny 62 16.8 25 -3.9 24 24 W 9 15 30.12 1020 10 16 N/A
1:35 pm 13:35 Sunny 63 17 25 -3.9 24 24 NW 13 20 30.09 1019 10 16 N/A
1:55 pm 13:55 Sunny 63 17.4 26 -3.5 24 24 NW 9 15 30.09 1019 10 16 N/A
2:15 pm 14:15 Sunny 64 17.9 27 -2.7 25 25 NW 15 24 30.06 1018 10 16 N/A
2:35 pm 14:35 Sunny 64 17.6 26 -3.2 24 24 N 12 19 30.03 1017 10 16 N/A
2:55 pm 14:55 Sunny 65 18.5 27 -2.7 24 24 NNW 9 15 30.03 1017 10 16 N/A
3:15 pm 15:15 Sunny 66 18.7 28 -2.3 24 24 N 15 24 30.03 1017 10 16 N/A
3:35 pm 15:35 Sunny 66 18.9 28 -2.5 23 23 NNW 8 13 30.03 1017 10 16 N/A
3:55 pm 15:55 Sunny 66 18.9 27 -3 23 23 NNW 9 15 30.03 1017 10 16 N/A
4:15 pm 16:15 Sunny 66 19 27 -2.8 23 23 N 13 20 30.00 1016 10 16 N/A
4:35 pm 16:35 Sunny 66 18.7 26 -3.1 23 23 N 13 20 30.00 1016 10 16 N/A
4:55 pm 16:55 Sunny 65 18.6 26 -3.3 22 22 N 9 15 30.00 1016 10 16 N/A
5:15 pm 17:15 Sunny 65 18.4 27 -2.9 23 23 N 10 17 30.00 1016 10 16 N/A
5:35 pm 17:35 Sunny 64 18 26 -3.2 24 24 NNE 13 20 30.00 1016 10 16 N/A
5:55 pm 17:55 Sunny 64 17.7 26 -3.1 24 24 NNE 10 17 30.00 1016 10 16 N/A
6:15 pm 18:15 Sunny 63 17.3 26 -3.4 24 24 NNE 10 17 30.00 1016 10 16 N/A
6:35 pm 18:35 Sunny 62 16.7 26 -3.3 25 25 NE 9 15 30.03 1017 10 16 N/A
6:55 pm 18:55 Sunny 61 16.3 26 -3.4 26 26 NNE 14 22 30.03 1017 10 16 N/A
7:15 pm 19:15 Sunny 60 15.6 26 -3.5 27 27 NE 14 22 30.03 1017 10 16 N/A
7:35 pm 19:35 Sunny 58 14.5 25 -3.7 28 28 ENE 15 24 30.03 1017 10 16 N/A
7:55 pm 19:55 Sunny 55 13 26 -3.2 33 33 ENE 10 17 30.06 1018 10 16 N/A
8:15 pm 20:15 Clear 54 12 25 -4 33 33 NE 12 19 30.06 1018 10 16 N/A
8:35 pm 20:35 Clear 51 10.6 25 -3.9 36 36 ENE 12 19 30.06 1018 10 16 N/A
8:55 pm 20:55 Clear 47 8.6 26 -3.2 44 44 ENE 9 15 30.12 1020 10 16 N/A
9:15 pm 21:15 Clear 45 7.4 27 -3 48 48 ENE 12 19 30.15 1021 10 16 N/A
9:35 pm 21:35 Clear 45 7.1 27 -3 49 49 E 10 17 30.15 1021 10 16 N/A
9:55 pm 21:55 Clear 44 6.7 27 -3 50 50 E 9 15 30.15 1021 10 16 N/A
10:15 pm 22:15 Clear 43 6.2 26 -3.1 52 52 E 10 17 30.18 1022 10 16 N/A
10:35 pm 22:35 Clear 43 6.1 26 -3.6 50 50 E 10 17 30.18 1022 10 16 N/A
10:55 pm 22:55 Clear 42 5.7 25 -3.8 51 51 E 9 15 30.18 1022 10 16 N/A
11:15 pm 23:15 Clear 40 4.5 25 -3.8 55 55 ENE 9 15 30.21 1023 10 16 N/A
11:35 pm 23:35 Clear 39 3.8 25 -3.7 58 58 E 8 13 30.21 1023 10 16 N/A
11:55 pm 23:55 Clear 38 3.5 25 -4 58 58 E 9 15 30.21 1023 10 16 N/A

Powered by AerisWeather